Wind_Speed
2 4 5 9 7 5 4 2 0 1 3 4 6 9 11 23 24 21 26 27 30 28 25 24 29 30 30 29 32 36 40 42 41 42 42 43 44 43 41 40 37 35 37 36
5 4 9 5 4 4 3 2 4 1 1 2 6 11 12 13 22 31 34 33 32 30 29 28 29 29 32 33 32 35 40 43 44 45 44 43 43 43 42 42 42 40 37 37
6 4 7 5 2 3 1 3 3 5 3 3 5 8 6 6 10 19 25 28 27 29 30 28 27 31 34 37 37 35 35 41 44 44 44 43 44 44 44 44 46 45 43 40
4 5 4 3 4 6 3 2 4 4 4 3 4 6 6 6 12 6 21 20 22 23 24 22 21 27 31 36 36 36 36 36 40 43 44 44 45 47 47 47 47 46 45 44
6 5 4 3 5 5 6 2 3 2 2 1 4 1 8 5 6 10 13 16 10 7 7 6 11 15 19 24 30 35 36 36 37 40 43 44 45 46 47 45 46 45 46 46
4 3 2 6 3 0 7 5 6 5 3 3 8 8 4 4 5 1 2 9 5 6 8 10 11 12 15 20 22 27 34 35 36 38 41 44 44 45 45 44 45 43 41 42
2 3 3 4 5 6 3 6 1 3 2 7 4 2 7 6 8 3 3 6 8 9 14 17 16 14 16 18 20 23 28 33 34 35 37 40 41 42 43 42 43 43 43 43
7 5 9 6 8 8 7 8 6 6 4 5 5 7 5 8 6 2 4 9 11 17 15 17 18 16 16 17 19 22 25 27 28 30 32 33 35 37 38 39 40 42 42 42
6 5 2 3 3 9 5 6 5 4 1 3 5 7 7 10 8 11 17 8 16 19 19 19 18 15 15 16 16 17 20 22 24 26 27 28 30 32 33 34 36 38 39 39
5 2 3 1 2 2 5 4 2 2 2 4 5 6 8 9 6 7 8 8 14 17 20 20 19 19 17 14 15 17 20 21 20 21 21 21 22 25 27 29 31 33 34 35
5 4 2 2 5 8 3 1 2 4 5 5 2 7 6 6 8 4 4 12 18 24 20 13 11 18 22 23 24 22 18 15 14 13 14 15 18 21 24 26 28 29 30 33
3 4 4 6 3 3 4 6 6 4 4 4 3 14 4 11 10 11 15 27 28 22 18 18 17 26 28 30 28 29 22 18 13 10 10 12 18 23 25 26 27 29 30 32
2 1 2 6 4 3 2 3 5 2 3 7 5 13 3 10 17 24 23 27 25 22 25 20 19 30 33 30 32 33 29 25 23 20 20 23 23 25 29 30 29 30 32 35
5 2 5 5 4 3 3 5 3 1 3 9 15 22 25 10 14 22 28 25 29 31 30 25 23 25 28 33 36 33 29 26 25 28 28 29 29 31 33 34 34 34 35 37
3 4 0 3 3 3 3 6 6 3 6 6 9 9 28 13 15 24 22 28 27 24 26 34 34 31 31 30 29 30 32 29 26 30 32 33 31 33 35 36 36 37 37 38
2 1 1 5 1 3 6 11 8 11 14 13 19 21 20 36 35 24 23 26 27 22 19 21 24 24 26 29 32 33 31 28 26 30 34 33 33 34 35 36 37 38 37 36
5 5 3 4 3 3 6 11 16 13 11 11 13 18 17 17 18 13 16 11 20 23 24 26 25 23 20 20 23 27 29 31 32 32 32 32 31 32 31 31 33 35 35 34
6 5 3 3 3 1 7 3 1 6 7 9 11 11 9 9 23 20 4 21 23 24 26 26 26 26 25 26 26 27 25 26 28 28 28 29 30 31 30 31 31 31 32 33
6 4 1 3 4 6 11 8 5 5 7 6 5 6 11 21 22 15 5 26 30 26 22 24 27 28 27 26 26 26 25 26 25 24 26 26 27 29 30 31 30 30 30 30
7 6 5 3 5 9 9 4 7 3 5 5 9 5 12 19 5 6 29 32 30 27 29 28 27 27 29 32 32 30 28 26 27 27 26 26 26 27 28 28 29 29 28 27
5 8 15 12 9 6 13 12 5 3 8 2 7 12 19 5 10 26 30 33 33 34 34 33 32 33 33 31 31 35 34 31 27 25 27 27 27 27 26 25 24 24 24 25
7 9 5 7 5 11 15 2 6 3 4 9 13 16 12 13 21 23 31 35 38 38 36 33 33 32 33 35 36 31 33 35 33 30 26 26 24 24 23 22 19 19 20 20
2 7 5 9 7 4 3 5 7 2 10 9 6 9 13 17 22 26 35 36 39 35 33 32 33 35 33 32 33 34 34 31 31 32 28 25 24 21 19 17 17 14 14 13
4 4 4 4 6 5 17 17 10 2 2 13 21 20 22 26 32 37 40 39 39 36 36 35 35 36 37 33 31 32 27 27 26 25 25 24 21 18 15 12 12 11 9 8
7 2 3 4 5 3 10 12 16 19 26 29 34 35 30 30 38 38 41 39 35 35 35 35 35 34 32 32 30 27 26 24 22 23 21 15 14 12 9 7 6 5 4 5
8 5 3 6 14 13 19 28 27 30 35 36 30 31 37 36 39 41 40 35 32 34 37 38 34 32 31 29 27 24 21 21 20 18 16 12 12 8 5 4 6 7 5 7
Wind_Direction
114 92 188 209 190 174 128 135 348 304 227 159 227 264 268 274 283 272 266 257 253 252 259 250 249 248 246 244 239 233 233 237 238 235 233 231 230 231 233 234 236 238 238 237
43 205 225 210 197 200 183 168 275 333 175 162 272 272 264 256 258 261 262 263 257 258 258 253 252 246 245 248 245 241 238 238 238 240 239 237 238 236 235 237 237 236 233 237
152 225 192 162 136 124 191 170 239 223 344 289 346 288 291 290 258 288 270 268 269 262 264 260 255 253 251 246 246 246 246 244 241 241 242 239 240 240 239 239 239 240 239 234
214 233 146 158 184 145 207 198 233 243 70 244 81 289 286 264 277 290 284 275 260 269 270 272 268 260 254 251 251 251 249 250 246 243 243 243 242 241 243 243 242 243 243 239
234 167 157 150 202 152 210 169 134 105 121 33 313 227 274 265 274 265 281 284 304 303 293 298 288 271 265 263 256 254 252 250 250 248 248 247 246 247 248 249 250 247 246 246
169 116 128 180 50 226 154 73 40 38 72 291 204 193 277 239 219 274 31 66 75 24 346 323 330 309 270 259 253 252 251 250 251 251 250 250 249 249 250 251 252 252 250 248
171 200 132 134 78 7 115 94 334 335 356 240 328 233 241 269 249 254 352 27 12 349 333 325 322 311 294 272 260 254 251 250 250 251 251 252 252 253 255 255 257 257 257 256
171 266 162 191 176 175 194 162 163 204 207 270 341 248 266 241 268 65 356 334 3 15 7 347 333 307 303 297 275 260 258 258 256 255 255 255 254 256 258 260 260 262 262 263
163 244 83 131 147 151 208 211 171 82 44 39 239 289 290 260 295 330 345 39 38 12 4 357 347 333 313 305 289 283 271 267 262 259 256 255 256 257 260 263 264 267 268 268
201 154 1 37 106 24 134 166 94 7 155 248 271 280 226 300 351 45 46 26 13 15 7 1 11 7 354 325 312 301 282 270 262 258 257 256 258 259 261 263 263 265 271 271
162 114 303 106 196 176 118 215 174 150 155 178 277 260 222 168 135 110 32 19 3 347 346 351 2 1 359 4 1 347 306 281 263 256 258 263 267 267 265 265 266 267 270 271
202 131 172 206 214 180 155 187 165 150 241 229 162 265 152 120 97 30 356 349 340 337 342 334 339 343 340 338 338 339 333 303 274 259 273 299 295 284 279 277 276 271 269 272
170 101 56 350 13 355 174 204 198 159 90 229 141 262 170 26 343 341 343 340 342 345 343 330 322 326 322 322 323 321 319 318 304 287 286 294 293 292 286 281 279 276 272 270
76 113 162 172 110 39 13 344 17 57 157 260 234 277 273 335 324 320 322 321 321 321 321 320 325 323 317 315 313 310 307 306 296 292 290 289 284 286 279 275 272 273 272 270
86 195 192 221 162 137 228 254 275 267 252 250 285 303 292 305 307 304 311 308 318 320 317 319 320 320 312 306 304 304 304 298 290 285 288 290 288 284 279 273 272 274 275 272
28 163 357 302 274 208 228 215 222 240 248 256 265 262 279 284 289 297 298 310 318 335 341 342 333 321 310 303 300 299 298 294 288 286 287 287 287 286 281 278 278 275 272 271
133 141 123 265 126 93 295 242 216 225 221 228 248 254 264 280 292 336 330 13 3 348 342 339 336 336 333 320 308 301 298 296 293 290 290 288 286 282 281 278 274 274 275 274
134 124 125 219 43 303 247 336 298 216 220 237 256 269 321 349 322 322 355 3 358 346 343 338 337 332 322 315 312 307 301 297 295 293 291 288 285 282 280 278 276 274 273 271
150 138 170 192 192 300 294 272 208 161 278 289 289 344 343 346 328 288 294 343 338 339 333 330 332 334 332 327 321 315 312 306 301 298 296 293 288 285 282 279 278 274 272 271
186 170 166 89 162 211 245 284 246 167 275 101 67 12 341 337 338 289 324 325 323 317 320 318 315 314 318 323 327 321 316 314 312 308 303 300 299 294 287 281 276 272 266 265
168 211 219 224 233 270 255 247 293 188 259 231 318 316 308 273 266 300 311 317 320 320 318 315 309 311 315 311 312 318 323 316 310 306 305 303 298 293 287 283 280 275 266 259
158 173 198 221 235 248 242 356 176 171 281 291 286 285 275 294 307 313 316 316 319 317 318 317 315 309 305 306 307 301 303 312 313 306 303 301 297 289 285 280 278 272 266 263
265 189 184 183 205 208 116 289 290 254 283 282 260 309 313 303 308 315 316 319 318 317 318 318 319 315 312 306 303 299 300 297 294 300 304 306 300 290 282 277 269 261 263 261
264 197 194 74 273 277 300 298 293 271 184 318 314 313 309 309 316 315 315 312 313 312 315 316 318 316 311 307 303 299 298 301 302 300 299 298 290 286 278 270 266 251 236 228
211 126 174 260 285 267 273 278 298 303 307 305 308 310 307 311 311 312 313 309 308 307 311 312 313 313 310 306 302 299 298 299 297 295 290 285 278 267 260 252 234 240 201 193
197 210 192 255 266 273 275 282 286 294 296 299 299 296 298 304 304 305 304 305 308 308 307 308 307 306 308 304 300 295 294 294 290 286 282 274 251 228 195 182 165 134 124 131
Height
1521 1530 1536 1531 1530 1529 1529 1533 1539 1533 1532 1533 1536 1534 1527 1521 1519 1518 1516 1514 1514 1515 1516 1517 1518 1519 1521 1523 1525 1527 1529 1531 1535 1537 1540 1543 1544 1547 1550 1553 1556 1559 1560 1563
1527 1532 1524 1525 1525 1525 1528 1533 1538 1533 1532 1534 1533 1530 1521 1517 1510 1508 1507 1506 1507 1509 1511 1512 1513 1514 1515 1517 1518 1520 1521 1524 1527 1529 1532 1536 1538 1540 1545 1548 1550 1551 1554 1555
1527 1521 1518 1522 1524 1527 1530 1535 1535 1538 1534 1532 1535 1534 1520 1509 1505 1502 1502 1500 1500 1501 1502 1504 1507 1508 1509 1509 1511 1512 1514 1516 1519 1522 1526 1530 1533 1535 1537 1538 1540 1542 1544 1547
1522 1518 1519 1522 1525 1527 1533 1529 1530 1533 1540 1551 1533 1553 1527 1511 1505 1499 1496 1496 1494 1495 1497 1499 1500 1501 1502 1503 1506 1507 1508 1509 1512 1515 1518 1520 1522 1523 1525 1529 1533 1535 1538 1540
1522 1518 1521 1525 1524 1525 1532 1526 1528 1531 1539 1541 1543 1553 1524 1512 1509 1498 1491 1492 1493 1493 1494 1495 1495 1496 1498 1499 1500 1501 1502 1503 1504 1506 1509 1511 1514 1516 1519 1523 1525 1529 1531 1533
1517 1517 1518 1521 1524 1524 1526 1530 1534 1540 1546 1557 1540 1542 1532 1510 1502 1494 1493 1492 1494 1494 1495 1495 1494 1493 1493 1494 1495 1497 1498 1498 1499 1500 1501 1503 1506 1507 1510 1514 1515 1518 1521 1523
1519 1519 1518 1520 1526 1526 1527 1537 1557 1562 1569 1553 1534 1540 1517 1499 1493 1493 1491 1492 1494 1494 1494 1493 1492 1491 1490 1490 1491 1492 1492 1492 1493 1494 1494 1495 1498 1500 1503 1506 1508 1509 1511 1512
1522 1528 1518 1516 1518 1525 1530 1532 1552 1561 1564 1548 1536 1532 1505 1492 1490 1491 1491 1492 1492 1492 1492 1491 1490 1488 1487 1486 1487 1488 1488 1489 1490 1489 1489 1490 1492 1493 1495 1498 1500 1500 1501 1503
1518 1516 1508 1509 1510 1514 1529 1531 1528 1541 1575 1564 1536 1516 1500 1490 1489 1488 1490 1493 1492 1493 1492 1491 1489 1486 1485 1484 1484 1485 1485 1485 1484 1485 1485 1485 1487 1488 1489 1491 1493 1493 1494 1495
1502 1511 1512 1511 1512 1514 1516 1519 1536 1546 1559 1563 1534 1524 1508 1494 1493 1494 1492 1493 1495 1495 1493 1491 1488 1486 1485 1484 1483 1482 1481 1481 1481 1481 1482 1483 1483 1483 1484 1485 1484 1484 1485 1486
1497 1505 1517 1512 1514 1515 1521 1523 1522 1527 1540 1548 1550 1515 1489 1490 1495 1495 1495 1496 1496 1495 1493 1490 1489 1488 1486 1485 1484 1481 1479 1478 1478 1478 1479 1479 1479 1479 1479 1478 1478 1478 1478 1477
1495 1505 1523 1514 1507 1506 1509 1513 1519 1535 1536 1536 1536 1496 1483 1487 1491 1492 1495 1496 1495 1494 1492 1490 1488 1487 1486 1485 1483 1482 1480 1478 1477 1476 1475 1476 1476 1475 1474 1472 1472 1472 1470 1470
1496 1509 1535 1519 1514 1510 1509 1510 1510 1515 1531 1528 1544 1492 1477 1488 1489 1491 1494 1494 1494 1494 1494 1492 1490 1487 1484 1482 1480 1479 1478 1477 1476 1474 1473 1472 1472 1471 1469 1467 1465 1464 1462 1461
1495 1505 1510 1516 1516 1519 1522 1523 1520 1518 1535 1517 1513 1496 1479 1494 1494 1492 1494 1494 1492 1492 1491 1490 1488 1485 1482 1479 1476 1474 1472 1471 1470 1467 1465 1464 1464 1462 1461 1460 1457 1455 1454 1452
1502 1508 1512 1512 1514 1518 1519 1520 1518 1518 1519 1521 1505 1514 1480 1498 1495 1493 1493 1489 1488 1487 1486 1484 1482 1479 1477 1474 1472 1469 1466 1465 1463 1460 1458 1456 1456 1454 1451 1449 1448 1447 1446 1445
1505 1515 1513 1514 1511 1515 1517 1516 1519 1516 1511 1511 1508 1505 1496 1489 1487 1491 1489 1486 1486 1484 1480 1477 1475 1473 1471 1468 1465 1462 1459 1458 1455 1452 1449 1448 1446 1444 1442 1441 1440 1437 1435 1435
1507 1514 1519 1533 1515 1518 1526 1504 1504 1500 1500 1501 1502 1492 1489 1486 1486 1488 1485 1483 1482 1481 1477 1473 1472 1469 1466 1463 1460 1457 1453 1449 1446 1443 1441 1439 1436 1432 1432 1430 1428 1428 1427 1426
1505 1511 1517 1540 1533 1551 1498 1492 1494 1495 1494 1493 1491 1490 1490 1490 1486 1486 1484 1483 1480 1477 1472 1469 1468 1465 1461 1458 1455 1451 1448 1444 1440 1436 1433 1431 1429 1426 1424 1421 1419 1417 1416 1416
1500 1509 1518 1526 1550 1516 1494 1488 1489 1491 1490 1489 1491 1491 1490 1489 1483 1478 1479 1479 1477 1475 1470 1468 1465 1462 1458 1454 1449 1445 1442 1439 1434 1429 1426 1423 1420 1418 1416 1414 1413 1411 1408 1408
1499 1502 1513 1550 1548 1541 1490 1479 1479 1489 1500 1489 1489 1490 1489 1487 1487 1478 1474 1473 1471 1470 1468 1465 1460 1457 1453 1450 1445 1440 1436 1432 1430 1426 1421 1418 1413 1411 1409 1406 1405 1403 1401 1400
1500 1500 1498 1502 1503 1503 1479 1477 1482 1500 1491 1486 1488 1487 1486 1486 1483 1476 1472 1468 1466 1463 1461 1459 1454 1450 1446 1442 1438 1435 1431 1428 1423 1418 1416 1411 1407 1404 1402 1399 1397 1397 1396 1393
1493 1498 1508 1498 1500 1493 1472 1475 1483 1483 1481 1482 1482 1482 1482 1481 1477 1473 1468 1463 1459 1456 1452 1452 1447 1443 1439 1435 1432 1426 1423 1420 1418 1414 1408 1405 1401 1397 1396 1393 1389 1390 1391 1391
1492 1480 1490 1486 1482 1469 1469 1474 1475 1477 1477 1477 1478 1478 1477 1476 1473 1469 1465 1460 1455 1452 1449 1446 1441 1436 1433 1428 1422 1419 1416 1412 1409 1407 1402 1396 1395 1395 1391 1386 1385 1381 1383 1385
1473 1470 1476 1477 1468 1467 1465 1466 1469 1471 1472 1473 1473 1471 1471 1468 1464 1461 1458 1453 1449 1446 1443 1439 1434 1429 1426 1421 1418 1414 1408 1404 1401 1398 1395 1392 1391 1388 1388 1385 1385 1380 1378 1377
1468 1468 1471 1471 1465 1465 1465 1466 1465 1465 1466 1465 1464 1463 1461 1460 1456 1454 1449 1447 1443 1438 1436 1433 1428 1424 1420 1416 1412 1406 1403 1398 1396 1394 1391 1385 1388 1386 1385 1382 1383 1386 1379 1378
1458 1461 1467 1466 1463 1464 1463 1463 1463 1461 1460 1460 1459 1455 1453 1452 1450 1446 1441 1438 1435 1431 1428 1423 1420 1416 1412 1408 1404 1402 1398 1395 1393 1390 1386 1382 1388 1383 1379 1380 1383 1382 1382 1380